Upstream stations:
Downstream station:
SHEF ID: CNOO2 North Canadian River at Canton,
STATION TYPE:
Regulating: Stage = 17.40, Flow = 883
STAGE RIV-FLOW WTR-TEMP DIS-OXY BAT-LOAD
ft cfs F mg/l volt
Ccp-Rev Ccp-Rev Ccp-Rev Ccp-Rev Ccp-Rev
(US/Central)
03/18 00:00 11.15 1 54.70 8.59 12.73
03/18 01:00 11.15 1 52.97 8.55 12.73
03/18 02:00 11.15 1 51.39 8.44 12.65
03/18 03:00 11.14 1 50.09 8.69 12.65
03/18 04:00 11.14 1 49.14 8.80 12.65
03/18 05:00 11.14 1 ---- -99999.00 12.65
03/18 06:00 11.14 1 47.80 9.01 12.65
03/18 07:00 11.14 1 47.25 9.22 12.65
03/18 08:00 11.13 1 46.96 9.25 12.65
03/18 09:00 11.13 1 46.96 9.27 12.65
03/18 10:00 11.13 1 47.30 9.87 12.65
03/18 11:00 11.13 1 48.43 10.56 12.73
03/18 12:00 11.12 1 49.98 11.20 12.73
03/18 13:00 11.12 1 52.18 12.12 12.73
03/18 14:00 11.12 1 54.01 12.73 12.73
03/18 15:00 11.12 1 56.05 13.45 12.97
03/18 16:00 11.13 1 ---- -99999.00 13.05
03/18 17:00 11.13 1 58.32 13.24 12.97
03/18 18:00 11.13 1 59.13 12.88 12.89
03/18 19:00 11.14 1 60.03 12.60 12.81
03/18 20:00 11.14 1 61.45 12.21 12.73
03/18 21:00 11.15 1 61.79 11.59 12.73
03/18 22:00 11.15 1 61.12 10.90 12.73
03/18 23:00 11.16 1 59.43 10.10 12.73